Date,TemperatureHighF,TemperatureAvgF,TemperatureLowF,DewpointHighF,DewpointAvgF,DewpointLowF,HumidityHigh,HumidityAvg,HumidityLow,PressureMaxIn,PressureMinIn,WindSpeedMaxMPH,WindSpeedAvgMPH,GustSpeedMaxMPH,PrecipitationSumIn
2013-3-1,35.3,32.3,28.4,31.9,27.6,24.4,95,83,69,29.71,29.57,9,1,15,0.00
2013-3-2,38.9,32.9,27.7,27.8,24.8,21.9,89,72,58,29.70,29.65,15,2,21,0.02
2013-3-3,38.8,30.8,26.6,28.7,24.7,21.2,90,78,65,29.67,29.59,20,3,24,0.03
2013-3-4,31.9,27.3,25.0,21.7,19.0,17.0,76,71,59,29.80,29.60,28,9,30,0.00
2013-3-5,43.1,33.4,24.7,30.3,23.8,18.0,84,68,50,30.12,29.80,16,2,22,0.00
2013-3-6,35.6,33.2,30.5,30.3,26.7,22.4,91,77,66,30.25,30.12,30,13,40,0.00
2013-3-7,33.3,31.3,29.3,23.9,22.2,20.4,77,69,62,30.24,30.11,28,7,34,0.00
2013-3-8,46.0,36.1,29.3,26.0,18.5,11.8,87,52,26,30.25,30.06,32,5,34,0.00
2013-3-9,47.3,33.2,21.9,26.3,20.4,12.9,84,62,27,30.40,30.22,15,4,15,0.00
2013-3-10,43.3,29.2,20.9,29.1,23.3,18.4,91,80,47,30.45,30.32,21,3,21,0.00
2013-3-11,44.7,35.5,28.5,31.1,28.8,26.0,91,77,53,30.34,30.15,8,0,14,0.00
2013-3-12,45.7,39.2,31.8,44.0,37.2,27.9,99,92,83,30.17,29.74,28,5,28,0.55
2013-3-13,43.5,37.1,29.1,39.2,29.4,23.7,95,74,53,29.79,29.73,16,2,16,0.00
2013-3-14,32.4,26.6,16.7,24.4,15.7,0.6,89,64,48,29.86,29.69,34,5,34,0.00
2013-3-15,34.9,23.9,14.7,26.0,10.9,-0.8,90,59,35,29.86,29.64,33,4,34,0.05
2013-3-16,30.0,25.4,18.7,20.4,12.4,6.5,82,59,39,29.93,29.70,16,2,16,0.05
2013-3-17,27.1,21.3,16.5,10.8,3.9,-7.1,72,48,28,30.36,29.92,36,5,36,0.00
2013-3-18,32.4,23.0,9.4,18.3,6.7,-7.0,71,50,31,30.48,30.24,26,4,26,0.00
2013-3-19,28.7,25.6,22.2,26.5,22.9,17.4,96,90,63,30.27,29.74,36,10,36,0.33
2013-3-20,32.1,25.7,19.5,22.6,18.9,13.5,92,76,58,29.78,29.69,26,3,26,0.00
2013-3-21,33.6,24.2,10.9,20.6,13.6,6.8,88,65,41,29.80,29.64,22,4,22,0.00
2013-3-22,36.5,26.2,14.6,20.9,14.7,7.7,83,63,37,29.73,29.64,22,2,27,0.00
2013-3-23,35.8,29.7,19.0,22.2,19.3,13.2,81,65,49,29.78,29.61,33,7,33,0.00
2013-3-24,40.5,33.6,24.8,24.5,21.7,19.2,80,62,47,29.86,29.76,27,4,27,0.00
2013-3-25,40.2,31.1,19.6,27.6,22.6,16.9,89,72,51,29.82,29.61,26,3,26,0.00
2013-3-26,44.5,37.1,30.8,27.2,21.4,15.5,77,54,35,29.80,29.62,20,2,20,0.00
2013-3-27,45.4,37.4,27.8,30.7,25.0,20.2,83,62,40,29.92,29.78,30,3,30,0.00
2013-3-28,44.8,37.5,32.1,31.6,30.1,27.7,91,75,53,30.04,29.92,20,1,20,0.00
2013-3-29,47.0,41.1,34.6,33.2,30.2,27.3,80,65,50,30.07,30.01,21,3,21,0.00
2013-3-30,50.9,39.6,28.4,29.3,22.0,11.1,79,53,22,30.14,30.04,27,2,27,0.00
2013-3-31,52.1,37.1,23.7,36.2,24.3,14.3,90,63,27,30.15,29.80,38,5,38,0.18